Temp
-5 -5 -5 -5 -5 -6 -5 -5 -6 -6 -6 -6 -6 -6 -6 -6 -6 -6 -6 -6 -6 -7 -7 -7 -7 -7 -7 -7 -7 -7 -7 -7 -7 -7 -7 -7 -7 -7 -7 -7 -7 -7
-5 -5 -5 -5 -6 -6 -6 -6 -6 -6 -6 -6 -6 -6 -6 -6 -6 -6 -6 -6 -6 -6 -7 -7 -7 -7 -7 -7 -7 -7 -7 -7 -7 -7 -7 -7 -7 -7 -7 -7 -7 -7
-5 -5 -5 -5 -6 -6 -6 -6 -6 -6 -6 -6 -6 -6 -6 -6 -6 -6 -6 -6 -6 -6 -6 -7 -7 -7 -7 -7 -7 -7 -7 -7 -7 -7 -7 -7 -7 -7 -7 -7 -7 -7
-5 -5 -6 -6 -6 -6 -6 -6 -6 -6 -6 -6 -6 -6 -6 -6 -6 -6 -6 -6 -6 -6 -6 -6 -7 -7 -7 -7 -7 -7 -7 -7 -7 -7 -7 -7 -7 -7 -7 -7 -7 -7
-5 -6 -6 -6 -6 -6 -6 -6 -6 -6 -6 -6 -6 -6 -6 -6 -6 -6 -6 -6 -6 -6 -6 -6 -7 -7 -7 -7 -7 -7 -7 -7 -7 -7 -7 -7 -7 -7 -7 -7 -7 -7
-5 -6 -6 -6 -6 -6 -6 -6 -6 -6 -6 -6 -6 -6 -6 -5 -5 -5 -6 -6 -6 -6 -6 -6 -7 -7 -7 -7 -7 -7 -7 -7 -7 -7 -7 -7 -7 -7 -7 -7 -7 -7
-6 -6 -6 -6 -6 -6 -6 -6 -6 -6 -6 -6 -6 -6 -6 -5 -5 -5 -5 -6 -6 -6 -6 -6 -6 -7 -7 -7 -7 -7 -7 -7 -7 -7 -7 -7 -7 -7 -7 -7 -7 -7
-5 -6 -6 -6 -6 -6 -6 -6 -6 -6 -6 -5 -5 -6 -6 -6 -5 -5 -5 -6 -6 -6 -6 -6 -6 -6 -7 -7 -7 -7 -7 -7 -7 -7 -7 -7 -7 -7 -7 -7 -7 -7
-5 -6 -6 -6 -6 -6 -6 -6 -6 -6 -6 -6 -5 -6 -6 -6 -6 -6 -6 -6 -6 -6 -6 -6 -6 -6 -6 -7 -7 -7 -7 -7 -7 -7 -7 -7 -7 -7 -7 -7 -7 -7
-5 -5 -6 -6 -6 -7 -6 -6 -6 -6 -6 -6 -6 -6 -6 -6 -6 -6 -6 -6 -6 -6 -6 -6 -6 -6 -6 -7 -7 -7 -7 -7 -7 -7 -7 -7 -7 -7 -7 -7 -7 -7
-5 -6 -6 -6 -6 -7 -7 -6 -6 -6 -6 -6 -6 -6 -6 -6 -6 -7 -7 -7 -7 -6 -6 -6 -6 -6 -7 -7 -7 -7 -7 -7 -7 -7 -7 -7 -7 -7 -7 -7 -7 -7
-5 -5 -6 -6 -7 -7 -7 -6 -6 -6 -6 -6 -6 -6 -6 -6 -7 -7 -7 -7 -7 -7 -6 -6 -6 -7 -7 -7 -7 -7 -7 -7 -7 -7 -7 -7 -7 -7 -7 -7 -7 -7
-6 -6 -7 -7 -7 -7 -7 -7 -6 -6 -6 -6 -6 -6 -6 -6 -7 -7 -7 -7 -7 -7 -7 -7 -7 -7 -7 -7 -7 -7 -7 -7 -7 -7 -7 -7 -7 -7 -7 -7 -7 -7
-7 -7 -7 -7 -7 -7 -7 -7 -6 -6 -6 -6 -6 -6 -6 -6 -6 -6 -7 -7 -7 -7 -7 -7 -7 -7 -7 -7 -7 -7 -7 -7 -7 -7 -7 -7 -7 -7 -7 -7 -7 -7
-7 -7 -7 -6 -6 -6 -6 -7 -6 -6 -7 -7 -7 -6 -6 -6 -6 -6 -6 -7 -7 -7 -7 -7 -7 -7 -7 -7 -7 -7 -7 -7 -7 -7 -7 -7 -7 -7 -7 -7 -7 -7
-7 -7 -7 -6 -6 -6 -6 -6 -6 -6 -6 -6 -6 -6 -7 -7 -7 -6 -6 -6 -7 -7 -7 -7 -7 -7 -7 -7 -7 -7 -7 -7 -7 -7 -7 -7 -7 -7 -7 -7 -7 -7
-7 -7 -6 -6 -6 -6 -6 -6 -6 -6 -6 -6 -6 -7 -7 -7 -7 -6 -6 -6 -7 -7 -7 -7 -7 -7 -7 -7 -7 -7 -7 -7 -7 -7 -7 -7 -7 -7 -7 -7 -7 -7
-7 -7 -7 -6 -6 -6 -6 -6 -6 -6 -7 -7 -7 -7 -7 -7 -7 -7 -7 -7 -7 -7 -7 -7 -7 -7 -7 -7 -7 -7 -7 -7 -7 -7 -7 -7 -7 -7 -7 -7 -7 -7
-7 -7 -7 -7 -7 -7 -6 -6 -7 -7 -7 -7 -7 -7 -7 -7 -7 -7 -7 -7 -7 -7 -8 -8 -8 -8 -7 -7 -7 -7 -7 -7 -8 -8 -8 -7 -7 -7 -7 -8 -8 -8
-7 -7 -7 -7 -7 -7 -7 -7 -7 -7 -7 -7 -7 -7 -8 -8 -7 -7 -7 -7 -8 -8 -8 -8 -8 -8 -8 -8 -8 -8 -8 -8 -8 -8 -8 -7 -8 -8 -8 -8 -8 -8
-7 -7 -7 -7 -7 -7 -7 -7 -7 -7 -8 -8 -8 -8 -8 -8 -8 -8 -8 -8 -8 -8 -8 -8 -8 -8 -8 -8 -8 -8 -8 -8 -8 -8 -8 -8 -8 -8 -8 -8 -8 -8
-7 -7 -7 -7 -7 -7 -7 -8 -8 -8 -8 -8 -8 -8 -8 -8 -8 -8 -8 -8 -8 -8 -8 -8 -8 -8 -8 -8 -8 -8 -8 -8 -8 -8 -8 -8 -8 -8 -8 -8 -8 -8
-7 -7 -7 -7 -7 -7 -7 -7 -8 -8 -8 -8 -8 -8 -8 -8 -8 -8 -8 -8 -8 -8 -8 -8 -8 -8 -8 -8 -8 -8 -8 -8 -8 -8 -8 -8 -8 -8 -8 -8 -8 -8
-7 -7 -7 -7 -7 -7 -7 -7 -7 -7 -7 -8 -8 -8 -8 -8 -8 -8 -8 -8 -8 -8 -8 -8 -8 -8 -8 -8 -8 -8 -8 -8 -8 -8 -8 -7 -7 -7 -8 -8 -8 -8
-7 -7 -7 -7 -7 -7 -7 -7 -7 -7 -7 -7 -8 -8 -8 -8 -8 -8 -8 -8 -8 -8 -8 -8 -8 -8 -8 -8 -8 -8 -8 -8 -8 -8 -7 -7 -7 -7 -7 -8 -8 -8
-7 -8 -8 -8 -8 -8 -8 -8 -8 -8 -8 -8 -8 -8 -8 -8 -8 -8 -8 -8 -8 -8 -8 -8 -8 -8 -8 -8 -8 -8 -8 -8 -8 -8 -7 -7 -7 -7 -8 -8 -8 -8
Height
5919 5920 5920 5920 5920 5920 5920 5920 5920 5920 5920 5920 5921 5921 5921 5921 5921 5922 5923 5923 5924 5925 5925 5925 5926 5926 5926 5927 5927 5927 5928 5929 5930 5931 5932 5932 5933 5934 5934 5935 5935 5936
5918 5919 5919 5919 5919 5919 5919 5919 5919 5919 5919 5919 5920 5920 5920 5920 5920 5920 5921 5921 5922 5923 5923 5924 5924 5924 5925 5925 5925 5926 5926 5927 5927 5928 5929 5930 5931 5931 5932 5933 5933 5934
5918 5918 5918 5918 5918 5917 5917 5918 5918 5918 5918 5918 5918 5918 5918 5918 5918 5918 5919 5920 5920 5920 5921 5921 5922 5922 5923 5923 5923 5923 5924 5925 5925 5926 5926 5927 5928 5929 5930 5930 5931 5931
5917 5917 5917 5916 5916 5915 5916 5916 5917 5917 5917 5917 5917 5917 5917 5916 5916 5917 5917 5918 5918 5919 5919 5919 5920 5920 5920 5921 5921 5921 5922 5922 5923 5924 5924 5925 5926 5927 5927 5928 5929 5929
5916 5915 5914 5913 5913 5913 5914 5914 5915 5915 5915 5915 5915 5915 5915 5914 5914 5915 5915 5916 5916 5916 5917 5917 5917 5918 5918 5918 5919 5919 5919 5920 5921 5921 5922 5923 5924 5924 5925 5926 5927 5927
5913 5912 5911 5910 5911 5911 5911 5912 5912 5912 5912 5913 5913 5913 5913 5912 5912 5912 5913 5913 5914 5914 5914 5915 5915 5915 5915 5916 5916 5917 5917 5918 5918 5919 5920 5921 5921 5922 5922 5923 5924 5925
5910 5909 5908 5908 5908 5909 5909 5910 5909 5909 5909 5910 5910 5910 5910 5910 5910 5910 5911 5911 5911 5912 5912 5912 5913 5913 5913 5913 5914 5914 5915 5915 5916 5916 5917 5918 5918 5919 5920 5920 5921 5922
5907 5907 5906 5905 5905 5906 5907 5907 5906 5906 5907 5908 5908 5908 5908 5907 5908 5908 5908 5908 5908 5909 5909 5910 5910 5911 5911 5911 5912 5912 5912 5913 5913 5914 5915 5915 5916 5916 5917 5918 5918 5919
5904 5903 5902 5902 5902 5903 5903 5903 5903 5903 5904 5905 5905 5905 5905 5904 5905 5905 5905 5905 5906 5906 5906 5907 5908 5908 5909 5909 5910 5910 5910 5911 5911 5911 5912 5913 5913 5914 5914 5914 5915 5916
5900 5899 5899 5898 5898 5899 5899 5899 5900 5901 5901 5901 5901 5901 5901 5902 5902 5903 5902 5903 5903 5903 5904 5904 5905 5906 5907 5907 5908 5908 5908 5908 5908 5909 5909 5910 5910 5910 5910 5911 5911 5912
5896 5896 5895 5894 5894 5896 5896 5896 5897 5898 5898 5898 5898 5898 5899 5899 5900 5901 5901 5901 5902 5901 5901 5902 5902 5903 5904 5905 5905 5905 5906 5906 5906 5907 5907 5907 5908 5908 5908 5908 5908 5909
5892 5893 5893 5893 5894 5895 5894 5894 5895 5895 5895 5895 5896 5896 5897 5897 5898 5898 5898 5899 5899 5900 5899 5900 5900 5901 5902 5902 5902 5902 5903 5903 5904 5904 5904 5905 5905 5905 5905 5905 5906 5907
5891 5892 5893 5893 5894 5894 5894 5894 5894 5893 5893 5893 5893 5894 5894 5895 5895 5895 5895 5896 5896 5896 5897 5897 5897 5898 5898 5899 5899 5899 5899 5900 5901 5901 5902 5902 5902 5902 5901 5901 5902 5904
5890 5890 5891 5892 5892 5891 5891 5892 5892 5891 5890 5891 5891 5892 5892 5892 5892 5893 5893 5893 5893 5893 5893 5894 5894 5895 5895 5895 5895 5895 5896 5897 5897 5898 5898 5898 5899 5899 5899 5899 5899 5899
5888 5887 5888 5888 5888 5887 5886 5887 5887 5887 5887 5888 5889 5889 5890 5890 5891 5891 5891 5891 5891 5891 5891 5891 5891 5892 5892 5892 5892 5892 5892 5893 5893 5893 5894 5895 5895 5896 5897 5896 5896 5896
5886 5886 5887 5886 5886 5886 5884 5883 5884 5884 5884 5885 5886 5886 5887 5887 5888 5888 5888 5889 5888 5888 5888 5888 5888 5889 5889 5889 5890 5890 5890 5890 5890 5890 5891 5892 5892 5892 5892 5892 5893 5893
5886 5885 5885 5885 5884 5884 5883 5882 5882 5882 5883 5883 5884 5884 5884 5884 5884 5884 5884 5884 5884 5884 5883 5884 5885 5886 5887 5887 5888 5889 5889 5888 5888 5888 5888 5889 5889 5889 5889 5888 5889 5889
5885 5884 5884 5884 5883 5882 5882 5881 5880 5881 5881 5881 5882 5882 5882 5882 5882 5882 5882 5881 5881 5880 5880 5881 5883 5884 5884 5885 5885 5886 5886 5885 5885 5885 5885 5885 5885 5886 5886 5885 5885 5885
5884 5883 5883 5883 5882 5881 5880 5880 5880 5880 5880 5880 5881 5881 5880 5880 5880 5880 5880 5879 5879 5879 5879 5880 5881 5882 5881 5881 5882 5882 5882 5882 5882 5881 5882 5882 5882 5882 5883 5883 5882 5882
5883 5882 5882 5881 5881 5880 5880 5880 5880 5880 5880 5880 5879 5879 5879 5879 5879 5879 5878 5879 5879 5879 5879 5879 5880 5880 5879 5879 5879 5879 5879 5879 5879 5879 5879 5880 5880 5880 5880 5880 5880 5880
5881 5880 5880 5880 5879 5879 5879 5879 5879 5879 5879 5878 5878 5878 5878 5877 5877 5877 5877 5878 5878 5878 5878 5878 5878 5878 5879 5879 5878 5877 5877 5877 5877 5878 5878 5878 5878 5878 5879 5878 5877 5877
5879 5878 5878 5878 5878 5878 5878 5878 5878 5878 5878 5877 5877 5877 5876 5876 5876 5876 5876 5877 5877 5877 5878 5877 5876 5877 5878 5878 5877 5876 5876 5876 5876 5876 5876 5876 5876 5877 5878 5877 5875 5874
5878 5877 5877 5877 5878 5878 5877 5877 5877 5877 5877 5877 5876 5876 5876 5875 5875 5875 5876 5876 5876 5876 5876 5876 5876 5876 5876 5876 5875 5875 5874 5874 5875 5875 5874 5874 5874 5875 5876 5875 5875 5873
5878 5878 5877 5877 5877 5878 5878 5877 5877 5877 5877 5877 5876 5876 5875 5874 5874 5874 5875 5876 5876 5876 5876 5876 5876 5876 5875 5874 5874 5873 5873 5873 5873 5873 5872 5872 5872 5872 5873 5873 5873 5873
5878 5878 5877 5877 5877 5877 5877 5877 5877 5877 5876 5876 5875 5875 5874 5873 5872 5873 5874 5875 5876 5876 5875 5875 5875 5874 5873 5873 5872 5872 5871 5871 5871 5871 5870 5869 5869 5869 5869 5870 5870 5870
5877 5877 5877 5877 5877 5877 5877 5877 5876 5876 5876 5875 5875 5874 5873 5872 5871 5871 5872 5874 5875 5875 5875 5874 5873 5872 5871 5871 5871 5870 5869 5869 5869 5868 5867 5867 5866 5866 5866 5866 5866 5865
Wind_Speed
8 9 10 10 10 10 10 10 9 9 9 9 9 10 10 11 12 12 13 14 14 14 14 15 15 15 15 14 14 15 17 19 19 20 21 22 22 22 22 21 21 20
10 10 11 11 11 11 12 12 12 11 10 9 9 9 10 11 12 13 13 14 14 14 14 15 15 16 16 15 15 16 17 19 20 21 21 22 23 24 23 23 23 22
12 11 11 11 11 11 12 12 13 13 12 11 10 10 10 11 12 13 13 14 15 15 15 16 16 17 17 17 17 17 17 19 21 22 22 22 23 24 25 25 25 25
14 13 11 11 11 11 12 12 13 14 14 12 11 11 11 12 12 13 13 14 15 15 15 16 17 17 18 18 18 18 18 18 20 22 23 23 23 24 25 26 26 25
15 14 13 13 12 12 12 12 13 14 14 14 13 13 13 13 14 13 13 14 15 16 16 16 17 18 19 19 19 19 19 19 20 22 23 23 23 24 25 26 25 25
16 15 15 15 14 14 13 13 13 14 14 15 16 15 14 14 15 15 14 15 16 17 17 18 18 19 19 19 19 20 20 19 20 21 22 23 23 24 25 26 25 25
17 16 16 17 17 16 15 14 15 15 16 17 18 17 16 16 16 16 16 16 16 18 18 19 19 19 20 20 20 20 21 20 20 20 21 22 23 24 25 26 25 25
16 15 16 18 18 18 16 16 18 18 18 19 19 19 19 19 19 18 18 18 17 18 19 20 20 20 20 20 20 21 21 21 20 20 20 22 23 24 25 26 25 25
16 15 16 18 19 19 18 19 20 20 19 20 19 19 19 20 20 20 20 20 19 19 20 20 20 20 21 21 21 21 22 22 22 21 21 21 22 24 24 25 24 24
16 17 18 20 21 20 20 21 22 21 20 20 19 19 20 20 20 19 19 20 20 20 20 20 20 21 21 21 22 22 22 22 23 22 22 22 22 24 24 24 24 24
16 17 19 21 21 19 20 22 22 21 21 20 20 20 21 20 20 20 19 19 21 21 20 20 21 21 21 21 22 23 23 23 23 23 23 23 23 24 25 24 24 24
16 16 18 21 20 18 20 23 23 23 23 22 20 19 20 20 20 21 21 20 21 22 22 21 21 21 21 22 23 23 24 24 23 23 24 24 24 25 25 25 25 25
16 16 18 20 19 19 20 21 22 24 24 21 19 19 20 21 21 21 21 21 21 22 23 23 22 22 22 23 24 25 25 24 24 24 25 25 25 26 27 26 26 26
18 18 19 19 20 21 21 20 22 24 22 20 20 21 21 21 21 20 21 21 22 23 23 23 23 23 24 24 25 26 26 25 25 26 27 26 25 26 28 28 27 27
20 19 18 18 20 22 21 20 21 22 22 21 22 22 22 21 20 20 22 23 24 24 24 24 24 25 25 25 26 26 26 26 26 27 27 26 26 27 28 29 29 28
19 18 17 18 19 18 17 17 18 19 20 21 22 22 22 22 21 21 22 24 25 25 24 24 25 26 26 26 26 27 27 28 28 28 27 26 27 27 28 29 30 30
17 17 16 16 17 15 14 15 15 17 18 19 20 21 22 23 23 23 23 24 25 26 27 26 26 25 25 26 27 28 28 29 30 29 28 26 26 28 28 29 30 31
16 16 15 14 15 14 13 12 12 14 16 17 18 19 21 22 22 22 22 22 23 25 26 26 25 24 25 26 27 28 28 28 29 29 28 27 27 28 28 28 29 30
14 15 14 13 14 14 13 11 10 10 11 11 13 14 15 17 17 18 18 17 18 18 20 21 21 23 24 24 24 23 24 25 26 27 28 28 28 28 27 27 28 28
14 13 13 13 13 12 12 10 8 7 7 7 9 10 11 12 14 15 15 15 15 15 15 15 15 17 19 19 18 18 18 19 21 22 23 24 25 26 26 25 25 24
13 13 12 12 11 10 10 10 9 8 8 8 9 10 10 11 12 13 13 13 13 12 13 13 11 11 13 14 14 14 15 16 17 19 20 21 21 22 22 22 23 22
13 12 11 10 9 8 9 10 10 10 9 10 11 11 12 12 11 12 12 12 11 11 12 12 10 10 12 14 14 14 15 16 17 18 20 21 21 20 19 19 21 22
11 11 10 9 9 9 9 10 10 10 10 11 11 12 12 12 12 13 13 12 11 11 12 12 10 10 12 14 14 15 15 15 16 18 20 20 20 19 18 17 18 20
10 10 10 9 9 9 9 9 9 10 9 10 11 11 11 12 12 12 13 12 12 11 12 11 10 10 11 12 13 13 14 15 16 17 19 19 19 19 18 17 17 18
10 9 9 10 10 10 10 10 10 10 10 10 10 11 12 12 12 12 12 12 12 12 12 11 11 12 12 12 13 14 15 17 18 19 20 20 20 21 20 19 18 18
10 10 10 11 12 12 12 12 11 11 10 10 11 11 12 14 15 14 14 13 12 12 12 13 14 14 14 14 15 16 18 20 20 21 22 23 23 23 23 22 20 20
Wind_Direction
265 266 269 271 274 277 281 286 288 283 276 272 269 266 265 267 267 266 264 262 260 259 259 260 260 261 260 258 257 252 246 243 243 244 245 245 243 243 244 248 251 256
267 266 269 274 275 275 275 278 281 282 279 276 271 267 264 263 264 264 266 265 262 257 256 257 257 258 258 256 254 252 247 244 242 243 245 245 244 244 244 246 249 252
272 272 274 278 280 280 278 278 277 276 278 277 272 267 263 261 261 263 265 265 263 259 255 254 254 255 257 255 254 253 250 246 243 243 244 245 246 245 245 246 247 249
270 272 273 275 277 279 280 281 279 275 272 271 270 267 262 260 259 259 260 261 261 259 256 254 253 254 255 256 256 254 253 250 248 247 246 246 247 248 247 246 247 249
266 267 269 270 271 273 275 276 277 273 267 265 265 264 260 258 259 258 258 258 257 256 254 253 252 252 253 256 257 256 255 253 252 251 249 248 248 249 250 249 248 249
260 263 266 268 268 269 269 268 269 267 264 260 259 260 259 257 258 258 258 259 258 255 253 252 250 251 252 253 255 256 257 255 254 255 254 251 250 250 250 250 249 249
259 263 267 269 269 268 270 269 267 265 261 256 255 257 259 259 258 259 259 260 261 258 255 254 253 253 255 255 255 255 255 255 256 256 256 253 252 252 251 251 250 250
260 264 266 268 269 268 268 266 263 261 259 257 256 256 258 260 261 261 258 256 257 257 255 255 256 256 256 257 257 256 255 255 255 256 256 254 253 252 252 253 252 252
261 262 263 264 266 266 263 259 257 257 258 260 260 258 257 258 259 260 258 255 253 254 255 255 256 257 257 258 259 259 258 256 255 254 255 255 254 252 251 252 253 253
257 258 258 258 260 262 261 261 260 260 260 259 258 258 259 258 260 262 261 258 255 253 254 254 255 257 258 260 261 261 261 259 258 256 255 255 255 253 252 251 250 251
253 254 256 258 259 262 265 268 268 266 265 262 258 260 263 263 265 264 261 262 261 255 253 254 254 256 258 260 261 261 262 262 262 261 258 257 256 256 255 254 252 251
255 254 259 264 266 268 272 274 275 272 269 264 261 262 263 261 261 260 258 261 261 255 252 252 254 256 256 256 258 259 259 260 260 260 260 258 257 257 257 257 257 257
279 280 281 280 278 279 280 278 277 275 268 262 264 265 262 259 258 258 258 258 256 253 251 250 251 254 254 254 255 255 256 256 256 256 256 256 256 257 256 255 256 257
296 301 296 287 284 286 283 274 270 270 264 260 265 266 261 259 260 261 261 259 257 256 253 250 249 250 252 252 252 252 254 255 254 253 252 253 254 256 257 255 253 255
295 299 296 291 293 294 286 273 267 266 262 261 264 265 263 263 263 262 262 261 259 259 257 254 250 247 249 251 252 253 254 255 257 256 255 254 254 256 258 256 253 254
297 302 303 301 302 303 292 277 267 263 260 259 261 264 264 263 263 262 261 260 259 259 258 256 251 247 248 252 253 254 255 257 258 259 259 257 255 256 258 258 256 256
302 306 307 303 302 303 294 279 268 260 257 257 259 262 262 262 262 262 260 258 258 257 256 254 252 250 250 253 256 259 260 260 260 259 259 258 256 255 257 258 259 257
304 305 306 304 302 301 296 286 276 266 261 260 261 263 264 265 264 262 260 259 259 258 257 256 255 254 255 257 260 263 264 263 262 260 258 257 255 254 256 258 259 258
303 302 302 302 300 300 301 298 287 272 266 267 269 270 270 269 266 262 259 259 262 263 261 261 260 256 256 256 259 262 264 263 261 260 259 258 258 258 259 262 266 267
300 297 297 298 298 299 300 300 296 285 280 281 280 277 271 268 267 265 261 262 267 268 267 266 264 259 257 256 253 254 258 260 261 261 260 260 261 263 265 270 274 277
297 292 291 292 293 292 289 288 288 282 277 274 272 271 267 265 267 268 267 268 270 274 274 272 270 269 267 263 256 251 253 260 264 268 268 267 266 268 273 277 278 280
295 293 290 287 286 283 276 274 274 271 269 267 265 266 266 266 267 270 273 274 274 276 278 275 274 274 272 270 267 262 261 264 270 275 276 275 274 275 278 280 280 282
297 298 299 293 287 282 275 273 273 272 271 267 264 266 267 268 270 273 277 280 279 279 280 279 280 278 276 276 274 271 271 273 277 280 279 278 280 280 280 282 283 286
302 301 301 297 291 287 281 279 279 278 277 275 274 276 276 275 274 276 280 283 282 279 280 280 281 279 278 279 279 277 278 278 278 279 279 280 282 282 283 285 286 286
305 299 296 292 289 288 286 282 280 279 280 280 280 282 282 281 277 275 278 282 283 282 282 281 279 278 277 279 281 282 281 279 279 280 281 283 285 286 287 288 287 285
304 299 294 290 287 287 285 282 279 277 277 278 278 279 280 282 283 282 282 284 284 282 282 282 282 282 283 285 285 284 283 284 285 286 286 287 288 288 288 289 288 286